DW9620 Weather Reports


Display with metric or nautical units.
time (UTC)temp
F
wind
direction
speed
MPH
gust
MPH
rain 1hr
in
rain 24hr
in
rain mn
in
humidity
%
barometer
mb
20260903020504 78 171 0.0 0.0 0.00 0.00 0.00 81 1016.6
20260903020004 78 171 0.0 0.0 0.00 0.00 0.00 81 1016.6
20260903015505 79 171 0.0 0.0 0.00 0.00 0.00 80 1016.7
20260903015004 79 171 0.0 0.0 0.00 0.00 0.00 80 1016.7
20260903014504 79 171 0.0 0.0 0.00 0.00 0.00 79 1016.7
20260903014004 79 171 0.0 0.0 0.00 0.00 0.00 78 1016.6
20260903013504 80 171 0.0 0.0 0.00 0.00 0.00 78 1016.5
20260903013004 80 171 0.0 0.0 0.00 0.00 0.00 78 1016.5
20260903012504 80 171 0.0 0.0 0.00 0.00 0.00 77 1016.5
20260903012004 81 171 0.0 0.0 0.00 0.00 0.00 77 1016.3
20260903011504 81 171 0.0 0.0 0.00 0.00 0.00 77 1016.3
20260903010504 81 171 0.0 0.0 0.00 0.00 0.00 76 1016.2
20260903010004 82 171 0.0 0.0 0.00 0.00 0.00 75 1016.2
20260903005504 82 171 0.0 0.0 0.00 0.00 0.00 75 1016.1
20260903005004 82 171 0.0 0.0 0.00 0.00 0.00 75 1016.1
20260903004504 83 171 0.0 0.0 0.00 0.00 0.00 74 1016.1
20260903004004 83 171 0.0 0.0 0.00 0.00 0.00 73 1016.0
20260903003504 83 171 0.0 0.0 0.00 0.00 0.00 73 1015.9
20260903003004 84 171 0.0 0.0 0.00 0.00 0.00 72 1015.9
20260903002004 84 171 0.0 0.0 0.00 0.00 0.00 71 1015.8
20260903001004 85 171 0.0 0.0 0.00 0.00 0.00 70 1015.9
20260903000504 86 171 0.0 0.0 0.00 0.00 0.00 69 1016.0
20260902235504 88 171 0.0 0.0 0.00 0.00 0.00 65 1015.9
20260902234504 90 171 0.0 0.0 0.00 0.00 0.00 64 1016.0
20260902233504 90 171 0.0 3.0 0.00 0.00 0.00 64 1016.0
20260902233004 91 171 1.0 3.0 0.00 0.00 0.00 63 1016.1
20260902232504 91 171 1.0 3.0 0.00 0.00 0.00 61 1016.1
20260902232005 91 171 2.0 5.0 0.00 0.00 0.00 60 1016.1
20260902231504 91 170 3.0 6.0 0.00 0.00 0.00 59 1016.1
20260902231004 91 184 3.0 6.0 0.00 0.00 0.00 59 1016.1
20260902230505 91 193 3.0 6.0 0.00 0.00 0.00 58 1016.2
20260902230004 91 196 2.0 5.0 0.00 0.00 0.00 58 1016.2
20260902225504 92 220 2.0 5.0 0.00 0.00 0.00 58 1016.2
20260902225004 92 185 2.0 5.0 0.00 0.00 0.00 58 1016.1
20260902224504 92 186 2.0 7.0 0.00 0.00 0.00 57 1016.1
20260902223504 91 180 5.0 7.0 0.00 0.00 0.00 58 1016.2
20260902223004 91 183 5.0 6.0 0.00 0.00 0.00 57 1016.2
20260902222504 92 216 3.0 7.0 0.00 0.00 0.00 56 1016.2
20260902222004 92 173 4.0 10.0 0.00 0.00 0.00 57 1016.2
20260902221504 92 188 5.0 10.0 0.00 0.00 0.00 56 1016.2
20260902221004 92 171 5.0 7.0 0.00 0.00 0.00 56 1016.1
20260902220004 91 190 2.0 6.0 0.00 0.00 0.00 57 1016.2
20260902215504 91 182 3.0 7.0 0.00 0.00 0.00 57 1016.3
20260902215004 91 216 5.0 10.0 0.00 0.00 0.00 55 1016.3
20260902214504 92 198 6.0 10.0 0.00 0.00 0.00 54 1016.3
20260902214004 92 194 4.0 10.0 0.00 0.00 0.00 55 1016.3
20260902213504 92 175 5.0 10.0 0.00 0.00 0.00 55 1016.4
20260902213004 92 224 4.0 10.0 0.00 0.00 0.00 55 1016.3
20260902212504 93 224 5.0 10.0 0.00 0.00 0.00 55 1016.3
20260902212004 93 168 6.0 9.0 0.00 0.00 0.00 54 1016.3
20260902211504 93 186 3.0 9.0 0.00 0.00 0.00 54 1016.4
20260902211004 93 192 3.0 12.0 0.00 0.00 0.00 54 1016.5
20260902210505 93 173 6.0 12.0 0.00 0.00 0.00 53 1016.5
20260902210004 93 207 7.0 12.0 0.00 0.00 0.00 51 1016.5
20260902205504 94 240 5.0 9.0 0.00 0.00 0.00 52 1016.6
20260902205004 93 188 4.0 10.0 0.00 0.00 0.00 52 1016.5
20260902204504 94 212 6.0 10.0 0.00 0.00 0.00 52 1016.6
20260902203504 93 172 3.0 13.0 0.00 0.00 0.00 55 1016.6
20260902203004 94 185 9.0 13.0 0.00 0.00 0.00 50 1016.6
20260902202004 94 169 4.0 10.0 0.00 0.00 0.00 53 1016.7
20260902201504 93 178 6.0 10.0 0.00 0.00 0.00 52 1016.8
20260902201004 93 198 6.0 9.0 0.00 0.00 0.00 52 1016.8
20260902200504 93 178 6.0 10.0 0.00 0.00 0.00 51 1016.9
20260902195505 93 242 6.0 16.0 0.00 0.00 0.00 53 1017.0
20260902195004 93 190 10.0 16.0 0.00 0.00 0.00 52 1017.0
20260902194504 93 195 7.0 12.0 0.00 0.00 0.00 55 1017.0
20260902194004 93 267 4.0 12.0 0.00 0.00 0.00 58 1017.0
20260902193504 93 227 6.0 12.0 0.00 0.00 0.00 54 1017.1
20260902193004 93 231 6.0 12.0 0.00 0.00 0.00 54 1017.1
20260902192504 93 209 5.0 14.0 0.00 0.00 0.00 54 1017.2
20260902191504 93 249 5.0 15.0 0.00 0.00 0.00 54 1017.1
20260902191004 93 170 7.0 16.0 0.00 0.00 0.00 53 1017.2
20260902190504 93 181 9.0 16.0 0.00 0.00 0.00 53 1017.2
20260902190004 92 167 10.0 14.0 0.00 0.00 0.00 54 1017.2
20260902185004 93 167 5.0 10.0 0.00 0.00 0.00 54 1017.4
20260902184504 93 191 5.0 12.0 0.00 0.00 0.00 56 1017.4
20260902184006 92 226 7.0 12.0 0.00 0.00 0.00 56 1017.6
20260902183504 92 194 9.0 12.0 0.00 0.00 0.00 54 1017.6
20260902183004 92 203 6.0 12.0 0.00 0.00 0.00 55 1017.7
20260902182504 92 172 7.0 12.0 0.00 0.00 0.00 56 1017.7
20260902182004 91 193 5.0 12.0 0.00 0.00 0.00 58 1017.6
20260902175504 92 281 7.0 10.0 0.00 0.00 0.00 56 1017.8
20260902175004 92 109 3.0 9.0 0.00 0.00 0.00 57 1017.9
20260902174504 92 161 5.0 12.0 0.00 0.00 0.00 59 1018.0
20260902174004 92 197 6.0 15.0 0.00 0.00 0.00 58 1018.0
20260902173504 92 224 7.0 15.0 0.00 0.00 0.00 57 1018.1
20260902173005 91 148 7.0 15.0 0.00 0.00 0.00 58 1018.1
20260902172504 91 225 6.0 13.0 0.00 0.00 0.00 59 1018.1
20260902172004 91 199 6.0 14.0 0.00 0.00 0.00 60 1018.1
20260902171505 91 159 7.0 14.0 0.00 0.00 0.00 61 1018.2
20260902171005 91 211 5.0 12.0 0.00 0.00 0.00 59 1018.2
20260902170504 91 177 7.0 12.0 0.00 0.00 0.00 63 1018.3
20260902170004 91 189 5.0 12.0 0.00 0.00 0.00 61 1018.3
20260902165504 91 159 8.0 12.0 0.00 0.00 0.00 62 1018.4
20260902165004 91 222 6.0 12.0 0.00 0.00 0.00 61 1018.4
20260902164504 91 144 5.0 10.0 0.00 0.00 0.00 63 1018.5
20260902164004 90 145 6.0 12.0 0.00 0.00 0.00 66 1018.4
20260902163004 90 188 7.0 12.0 0.00 0.00 0.00 62 1018.5
20260902162504 90 190 8.0 12.0 0.00 0.00 0.00 62 1018.5
20260902162004 90 194 7.0 12.0 0.00 0.00 0.00 63 1018.5
20260902161504 89 104 4.0 10.0 0.00 0.00 0.00 65 1018.6
20260902161004 89 213 3.0 10.0 0.00 0.00 0.00 65 1018.6
20260902160007 89 146 3.0 10.0 0.00 0.00 0.00 68 1018.8
20260902155505 88 251 3.0 12.0 0.00 0.00 0.00 66 1018.9
20260902155004 88 180 5.0 12.0 0.00 0.00 0.00 67 1018.9
20260902154004 87 235 4.0 12.0 0.00 0.00 0.00 67 1018.9
20260902153004 87 178 7.0 12.0 0.00 0.00 0.00 68 1018.9
20260902152504 87 195 2.0 10.0 0.00 0.00 0.00 70 1019.0
20260902151504 86 242 5.0 9.0 0.00 0.00 0.00 69 1019.1
20260902150504 86 218 4.0 10.0 0.00 0.00 0.00 69 1019.0
20260902150004 86 226 7.0 10.0 0.00 0.00 0.00 68 1019.0
20260902145004 85 245 5.0 8.0 0.00 0.00 0.00 71 1019.0
20260902144504 85 237 3.0 8.0 0.00 0.00 0.00 71 1018.8
20260902144004 85 197 5.0 8.0 0.00 0.00 0.00 70 1018.8
20260902143504 85 226 5.0 7.0 0.00 0.00 0.00 71 1018.8
20260902143004 84 254 3.0 7.0 0.00 0.00 0.00 73 1018.9
20260902142504 84 212 2.0 10.0 0.00 0.00 0.00 72 1018.9
20260902142004 84 232 5.0 10.0 0.00 0.00 0.00 72 1018.9
20260902141004 83 220 4.0 10.0 0.00 0.00 0.00 72 1018.9
20260902140504 83 188 5.0 10.0 0.00 0.00 0.00 72 1018.8
20260902140004 83 204 5.0 8.0 0.00 0.00 0.00 72 1018.8
20260902135504 83 236 6.0 8.0 0.00 0.00 0.00 73 1018.7
20260902135004 82 229 3.0 6.0 0.00 0.00 0.00 74 1018.6
20260902134504 82 214 3.0 8.0 0.00 0.00 0.00 76 1018.7
20260902134004 82 190 5.0 8.0 0.00 0.00 0.00 75 1018.6
20260902133504 82 182 5.0 6.0 0.00 0.00 0.00 76 1018.7
20260902133004 82 164 2.0 7.0 0.00 0.00 0.00 78 1018.8
20260902132504 81 193 3.0 7.0 0.00 0.00 0.00 78 1018.8
20260902131504 81 153 2.0 3.0 0.00 0.00 0.00 78 1018.8
20260902131004 80 160 1.0 3.0 0.00 0.00 0.00 80 1018.7
20260902130503 80 158 0.0 0.0 0.00 0.00 0.00 80 1018.8
20260902130004 79 158 0.0 0.0 0.00 0.00 0.00 80 1018.7
20260902125504 79 156 0.0 0.0 0.00 0.00 0.00 81 1018.8
20260902125004 78 156 0.0 0.0 0.00 0.00 0.00 82 1018.7
20260902124504 78 156 0.0 0.0 0.00 0.00 0.00 83 1018.7
20260902123504 76 193 0.0 0.0 0.00 0.00 0.00 85 1018.6
20260902123004 75 206 0.0 0.0 0.00 0.00 0.00 86 1018.5
20260902122504 75 54 0.0 0.0 0.00 0.00 0.00 87 1018.5
20260902121504 74 54 0.0 0.0 0.00 0.00 0.00 89 1018.6
20260902121004 73 54 0.0 1.0 0.00 0.00 0.00 90 1018.5
20260902120504 72 109 0.0 1.0 0.00 0.00 0.00 89 1018.5
20260902115503 72 9 0.0 1.0 0.00 0.00 0.00 90 1018.3
20260902115005 71 8 0.0 1.0 0.00 0.00 0.00 90 1018.3
20260902114504 71 334 0.0 1.0 0.00 0.00 0.00 90 1018.0
20260902114004 71 37 0.0 1.0 0.00 0.00 0.00 90 1018.0
20260902113504 70 27 0.0 1.0 0.00 0.00 0.00 90 1018.0
20260902113004 70 27 0.0 1.0 0.00 0.00 0.00 89 1018.0
20260902112504 70 26 0.0 1.0 0.00 0.00 0.00 89 1018.0
20260902112004 69 9 0.0 1.0 0.00 0.00 0.00 89 1018.0
20260902111504 69 10 0.0 1.0 0.00 0.00 0.00 89 1018.0
20260902110005 70 193 0.0 0.0 0.00 0.00 0.00 88 1018.0
20260902105504 70 193 0.0 0.0 0.00 0.00 0.00 88 1018.1
20260902104504 70 193 0.0 0.0 0.00 0.00 0.00 88 1018.0
20260902103504 71 193 0.0 0.0 0.00 0.00 0.00 89 1018.0
20260902103004 71 193 0.0 0.0 0.00 0.00 0.00 89 1017.9
20260902102504 71 193 0.0 0.0 0.00 0.00 0.00 89 1018.0
20260902101504 71 193 0.0 0.0 0.00 0.00 0.00 90 1017.9
20260902100504 70 193 0.0 0.0 0.00 0.00 0.00 90 1017.9
20260902100005 70 193 0.0 0.0 0.00 0.00 0.00 89 1017.8
20260902095004 70 193 0.0 0.0 0.00 0.00 0.00 89 1017.9
20260902094504 70 193 0.0 0.0 0.00 0.00 0.00 89 1017.9
20260902093504 70 193 0.0 0.0 0.00 0.00 0.00 89 1017.9
20260902092004 71 193 0.0 0.0 0.00 0.00 0.00 90 1017.8
20260902091504 70 193 0.0 0.0 0.00 0.00 0.00 90 1017.7
20260902091004 70 193 0.0 0.0 0.00 0.00 0.00 89 1017.7
20260902090504 70 193 0.0 0.0 0.00 0.00 0.00 89 1017.6
20260902090005 70 193 0.0 0.0 0.00 0.00 0.00 89 1017.6
20260902085504 70 193 0.0 0.0 0.00 0.00 0.00 89 1017.6
20260902085004 70 193 0.0 0.0 0.00 0.00 0.00 88 1017.4
20260902084504 70 193 0.0 0.0 0.00 0.00 0.00 88 1017.4
20260902084004 70 193 0.0 0.0 0.00 0.00 0.00 88 1017.4
20260902083004 70 193 0.0 0.0 0.00 0.00 0.00 89 1017.2
20260902082504 70 193 0.0 0.0 0.00 0.00 0.00 89 1017.1
20260902082004 70 193 0.0 0.0 0.00 0.00 0.00 89 1017.1
20260902081504 71 193 0.0 0.0 0.00 0.00 0.00 89 1017.1
20260902081005 71 193 0.0 0.0 0.00 0.00 0.00 89 1017.0
20260902080504 71 193 0.0 0.0 0.00 0.00 0.00 88 1017.1
20260902080004 71 193 0.0 0.0 0.00 0.00 0.00 88 1017.1
20260902075504 71 193 0.0 0.0 0.00 0.00 0.00 88 1017.0
20260902075004 71 193 0.0 0.0 0.00 0.00 0.00 88 1017.1
20260902074504 71 193 0.0 0.0 0.00 0.00 0.00 88 1017.1
20260902074004 71 193 0.0 0.0 0.00 0.00 0.00 88 1017.0
20260902073504 71 193 0.0 0.0 0.00 0.00 0.00 88 1017.1
20260902073004 71 193 0.0 0.0 0.00 0.00 0.00 88 1017.1
20260902072504 71 193 0.0 0.0 0.00 0.00 0.00 88 1017.0
20260902071504 71 193 0.0 0.0 0.00 0.00 0.00 88 1017.1
20260902071004 71 193 0.0 0.0 0.00 0.00 0.00 88 1017.1
20260902070504 71 193 0.0 0.0 0.00 0.00 0.00 88 1017.1
20260902070006 71 193 0.0 0.0 0.00 0.00 0.00 87 1017.0
20260902065505 71 193 0.0 0.0 0.00 0.00 0.00 87 1017.0
20260902065004 72 193 0.0 0.0 0.00 0.00 0.00 88 1017.0
20260902064004 71 193 0.0 0.0 0.00 0.00 0.00 87 1017.1
20260902063504 72 193 0.0 0.0 0.00 0.00 0.00 87 1017.1
20260902063004 72 193 0.0 0.0 0.00 0.00 0.00 87 1017.1
20260902062504 72 193 0.0 0.0 0.00 0.00 0.00 87 1017.1
20260902062004 72 193 0.0 0.0 0.00 0.00 0.00 87 1017.0
20260902061504 72 193 0.0 0.0 0.00 0.00 0.00 86 1017.0
20260902060504 72 193 0.0 0.0 0.00 0.00 0.00 86 1017.1
20260902060004 72 193 0.0 0.0 0.00 0.00 0.00 86 1017.1
20260902055505 72 193 0.0 0.0 0.00 0.00 0.00 86 1017.1
20260902055004 73 193 0.0 0.0 0.00 0.00 0.00 85 1017.1
20260902054504 73 193 0.0 0.0 0.00 0.00 0.00 85 1017.2
20260902054004 73 193 0.0 0.0 0.00 0.00 0.00 85 1017.1
20260902053504 73 193 0.0 0.0 0.00 0.00 0.00 85 1017.1
20260902053004 73 193 0.0 0.0 0.00 0.00 0.00 85 1017.3
20260902052504 74 193 0.0 0.0 0.00 0.00 0.00 85 1017.3
20260902052004 74 193 0.0 0.0 0.00 0.00 0.00 84 1017.2
20260902051504 74 193 0.0 0.0 0.00 0.00 0.00 84 1017.3
20260902051004 74 193 0.0 0.0 0.00 0.00 0.00 84 1017.3
20260902045504 75 193 0.0 0.0 0.00 0.00 0.00 83 1017.3
20260902045004 75 193 0.0 0.0 0.00 0.00 0.00 82 1017.1
20260902044504 75 193 0.0 0.0 0.00 0.00 0.00 82 1017.2
20260902044004 76 193 0.0 0.0 0.00 0.00 0.00 82 1017.1
20260902043504 76 193 0.0 0.0 0.00 0.00 0.00 81 1017.1
20260902043004 76 193 0.0 0.0 0.00 0.00 0.00 81 1017.1
20260902042504 76 193 0.0 0.0 0.00 0.00 0.00 81 1017.0
20260902042004 77 193 0.0 0.0 0.00 0.00 0.00 81 1017.1
20260902041505 77 193 0.0 0.0 0.00 0.00 0.00 80 1017.2
20260902041004 77 193 0.0 0.0 0.00 0.00 0.00 80 1017.1
20260902040504 77 193 0.0 0.0 0.00 0.00 0.00 80 1017.1
20260902040004 77 193 0.0 0.0 0.00 0.00 0.00 80 1017.1
20260902035507 77 194 0.0 0.0 0.00 0.00 0.00 80 1017.1
20260902035004 77 194 0.0 0.0 0.00 0.00 0.00 80 1017.1
20260902034504 77 194 0.0 0.0 0.00 0.00 0.00 81 1017.1
20260902034004 76 188 0.0 0.0 0.00 0.00 0.00 82 1017.1
20260902032504 76 156 0.0 0.0 0.00 0.00 0.00 83 1017.1
20260902032004 76 156 0.0 0.0 0.00 0.00 0.00 84 1017.1
20260902031504 76 156 0.0 0.0 0.00 0.00 0.00 83 1017.2
20260902030504 76 156 0.0 0.0 0.00 0.00 0.00 83 1017.3
20260902030004 76 156 0.0 0.0 0.00 0.00 0.00 83 1017.3
20260902025504 76 156 0.0 0.0 0.00 0.00 0.00 83 1017.3
20260902025005 77 156 0.0 0.0 0.00 0.00 0.00 83 1017.3
20260902024504 77 156 0.0 0.0 0.00 0.00 0.00 82 1017.3
20260902024004 77 156 0.0 0.0 0.00 0.00 0.00 82 1017.2
20260902023504 77 156 0.0 0.0 0.00 0.00 0.00 82 1017.2
20260902023004 77 156 0.0 0.0 0.00 0.00 0.00 82 1017.2
20260902022504 78 156 0.0 0.0 0.00 0.00 0.00 82 1017.3
20260902022004 78 156 0.0 0.0 0.00 0.00 0.00 82 1017.2
20260902021504 78 156 0.0 0.0 0.00 0.00 0.00 82 1017.2
20260902021004 78 156 0.0 0.0 0.00 0.00 0.00 82 1017.2